Regional Weather Roundup
Issued by NWS

Home | Current Version | Previous Version | Text Only | Print | Product List | Glossary On
Versions: 1 2 3 4 5 6 7 8 9 10 11 12 13 14 15 16 17 18 19 20 21 22 23 24 25 26 27 28 29 30 31 32 33 34 35 36 37 38 39 40 41 42 43 44 45 46 47 48 49 50
000
ASUS43 KOAX 020710
RWRNE

WEATHER ROUNDUP FOR NEBRASKA
NATIONAL WEATHER SERVICE OMAHA NE
200 AM CDT TUE SEP 02 2014

NOTES: SATELLITE DATA IS BEING USED TO AUGMENT CLOUD COVER ABOVE
       12000 FEET.
       "FAIR" INDICATES FEW OR NO CLOUDS BELOW 12,000 FEET WITH NO
       SIGNIFICANT WEATHER AND/OR OBSTRUCTIONS TO VISIBILITY.

  * THESE STATIONS DO NOT REPORT WEATHER SUCH AS RAIN...SNOW OR FOG.

NEZ001>004-019>022-054>056-020800-
NEBRASKA PANHANDLE

CITY           SKY/WX    TMP DP  RH WIND       PRES   REMARKS
SCOTTSBLUFF    CLEAR     48  45  89 E5        30.08F
ALLIANCE       CLEAR     46  43  89 CALM      30.07S
CHADRON        CLEAR     46  44  93 SW9       30.04S
KIMBALL        CLEAR     47  44  88 CALM      30.11S
SIDNEY         PTCLDY    48  45  89 S6        30.12R
$$

NEZ057>060-069>072-079>082-020800-
SOUTHWEST NEBRASKA

CITY           SKY/WX    TMP DP  RH WIND       PRES   REMARKS
NORTH PLATTE   PTCLDY    53  52  96 CALM      30.04S
IMPERIAL       PTCLDY    57  52  83 SE3       30.06F
LEXINGTON      PTCLDY    55  54  95 W3        30.03S
MCCOOK         CLEAR     58  55  90 CALM      30.05R
OGALLALA       PTCLDY    51  50  96 CALM      30.06F
$$

NEZ005>010-023>029-035>040-094-020800-
NORTH CENTRAL NEBRASKA

CITY           SKY/WX    TMP DP  RH WIND       PRES   REMARKS
VALENTINE      CLEAR     52  50  93 W8        30.01S
AINSWORTH      CLEAR     52  52  98 SW8       30.01S
BROKEN BOW     CLEAR     55  52  89 CALM      30.02S
O`NEILL        CLEAR     55  55  99 W5        29.98F
ORD            CLEAR     53  52  96 NW6       29.99R
THEDFORD       CLEAR     52  51  95 CALM      30.04F
$$

NEZ041-046>049-061>064-073>077-083>087-020800-
SOUTH CENTRAL NEBRASKA

CITY           SKY/WX    TMP DP  RH WIND       PRES   REMARKS
GRAND ISLAND   PTCLDY    56  52  86 W5        29.98F
AURORA         PTCLDY    55  55 100 SW5       29.97F
HASTINGS       PTCLDY    57  53  86 NW3       29.98F
HEBRON         MOCLDY    60  55  84 CALM      29.98S
HOLDREGE       PTCLDY    56  55  94 CALM      30.02R
KEARNEY *      CLEAR     55  54  94 W7        30.01R
YORK           PTCLDY    55 N/A N/A SW3       29.96F
$$

NEZ011>018-030>034-042>045-020800-
NORTHEAST NEBRASKA

CITY           SKY/WX    TMP DP  RH WIND       PRES   REMARKS
NORFOLK        MOCLDY    57  56  96 W5        29.96R
ALBION         CLEAR     55  54  94 N6        29.98R
BLAIR          MOCLDY    61  58  89 E13       29.87F
FREMONT        MOCLDY    62  58  88 NW5       29.93F
TEKAMAH        MOCLDY    61  59  93 CALM      29.91F
WAYNE          CLOUDY    56  55  96 W5        29.95R
$$

NEZ050>053-065>068-078-088>093-020800-
SOUTHEAST NEBRASKA

CITY           SKY/WX    TMP DP  RH WIND       PRES   REMARKS
LINCOLN        PTCLDY    61  56  83 SE5       29.96F
OMAHA EPPLEY   MOCLDY    63  58  83 N3        29.95F
BEATRICE       PTCLDY    62  60  93 CALM      29.97R
FALLS CITY     CLEAR     63  62  97 NW6       29.96R
NEBRASKA CITY  PTCLDY    63  63 100 NE5       29.96S
PLATTSMOUTH    PTCLDY    63  59  86 CALM      29.96S
$$

NEZ044-045-051>053-067-020800-
OMAHA AREA

CITY           SKY/WX    TMP DP  RH WIND       PRES   REMARKS
OMAHA EPPLEY   MOCLDY    63  58  83 N3        29.95F
BLAIR          MOCLDY    61  58  89 E13       29.87F
FREMONT        MOCLDY    62  58  88 NW5       29.93F
MILLARD        MOCLDY    64  58  82 CALM      29.94S
OFFUTT AFB     MOCLDY    64  62  93 N6        29.94F
PLATTSMOUTH    PTCLDY    63  59  86 CALM      29.96S
WAHOO          FAIR      60  57  89 S5        29.92F
$$



USA.gov is the U.S. government's official web portal to all federal, state and local government web resources and services.